This demonstration page uses our WeatherBlox Daily Observations layout. Learn more.

Left ArrowRight Arrow

Hourly Observations for November 15, 2015

Temp ( °F °C ) Dew Point ( °F °C ) Humidity (%) Winds ( mph kmh ) Pressure ( in mb ) Visibility ( mi km ) Precip ( " mm )
12:53 am 00:53 Clear 41 5 30 -1.1 65 65 SSW 3 6 29.69 1005 10 16 N/A
1:53 am 01:53 Clear 41 5 31 -0.6 67 67 N N/A 29.68 1005 10 16 N/A
2:53 am 02:53 Clear 38 3.3 32 undefined 79 79 N N/A 29.68 1005 10 16 N/A
3:53 am 03:53 Clear 33 0.6 29 -1.7 85 85 ESE 3 6 29.68 1005 10 16 N/A
4:53 am 04:53 Clear 32 undefined 28 -2.2 85 85 N N/A 29.68 1005 10 16 N/A
5:53 am 05:53 Clear 29 -1.7 26 -3.3 89 89 N N/A 29.67 1005 10 16 N/A
6:53 am 06:53 Clear 29 -1.7 25 -3.9 85 85 N N/A 29.66 1005 10 16 N/A
7:53 am 07:53 Sunny 27 -2.8 24 -4.4 89 89 E 6 9 29.65 1004 10 16 N/A
8:53 am 08:53 Sunny 34 1.1 31 -0.6 89 89 ENE 3 6 29.62 1003 10 16 N/A
9:53 am 09:53 Sunny 39 3.9 32 undefined 76 76 E 6 9 29.60 1002 10 16 N/A
10:53 am 10:53 Sunny 43 6.1 33 0.6 68 68 N N/A 29.58 1002 10 16 N/A
11:53 am 11:53 Sunny 49 9.4 33 0.6 55 55 N N/A 29.55 1001 10 16 N/A
12:53 pm 12:53 Sunny 54 12.2 34 1.1 47 47 N N/A 29.50 999 10 16 N/A
1:53 pm 13:53 Sunny 59 15 35 1.7 41 41 N N/A 29.46 998 10 16 N/A
2:53 pm 14:53 Sunny 58 14.4 34 1.1 41 41 E 3 6 29.45 997 10 16 N/A
3:53 pm 15:53 Sunny 54 12.2 35 1.7 49 49 SE 3 6 29.45 997 10 16 N/A
4:53 pm 16:53 Clear 46 7.8 35 1.7 66 66 ESE 5 7 29.46 998 10 16 N/A
5:53 pm 17:53 Clear 42 5.6 33 0.6 71 71 N 3 6 29.47 998 9 14 N/A
6:53 pm 18:53 Mostly Cloudy 42 5.6 34 1.1 73 73 E 6 9 29.46 998 10 16 N/A
7:53 pm 19:53 Clear 41 5 34 1.1 76 76 N N/A 29.45 997 10 16 N/A
8:53 pm 20:53 Clear 40 4.4 34 1.1 79 79 ESE 6 9 29.45 997 10 16 N/A
9:53 pm 21:53 Clear 39 3.9 34 1.1 82 82 N N/A 29.45 997 10 16 N/A
10:53 pm 22:53 Clear 40 4.4 32 undefined 73 73 W 7 11 29.43 997 10 16 N/A
11:53 pm 23:53 Clear 40 4.4 30 -1.1 68 68 WSW 7 11 29.43 997 10 16 N/A

Powered by AerisWeather